Time,TemperatureF,DewpointF,PressureIn,WindDirection,WindDirectionDegrees,WindSpeedMPH,WindSpeedGustMPH,Humidity,HourlyPrecipIn,Conditions,Clouds,dailyrainin,SoftwareType,DateUTC
2013-06-01 00:00:00,78.0,-99.9,29.95,SE,130,22.0,-999.0,-999,-99.99,,,-99.99,,2013-06-01 05:00:00,
2013-06-01 00:22:00,78.0,-99.9,29.97,SE,140,18.0,-999.0,-999,-99.99,,,-99.99,,2013-06-01 05:22:00,
2013-06-01 00:30:00,78.0,-99.9,29.95,SE,130,23.0,-999.0,-999,-99.99,,,-99.99,,2013-06-01 05:30:00,
2013-06-01 00:52:00,78.0,-99.9,29.95,SE,130,22.0,-999.0,-999,-99.99,,,-99.99,,2013-06-01 05:52:00,
2013-06-01 01:00:00,78.0,-99.9,29.95,SE,140,24.0,-999.0,-999,-99.99,,,-99.99,,2013-06-01 06:00:00,
2013-06-01 01:22:00,78.0,-99.9,29.95,SE,130,23.0,-999.0,-999,-99.99,,,-99.99,,2013-06-01 06:22:00,
2013-06-01 01:30:00,77.0,-99.9,29.95,SE,140,23.0,-999.0,-999,-99.99,,,-99.99,,2013-06-01 06:30:00,
2013-06-01 01:52:00,78.0,-99.9,29.95,SE,140,24.0,-999.0,-999,-99.99,,,-99.99,,2013-06-01 06:52:00,
2013-06-01 02:00:00,78.0,-99.9,29.96,SE,140,22.0,-999.0,-999,-99.99,,,-99.99,,2013-06-01 07:00:00,
2013-06-01 02:11:00,77.0,-99.9,29.95,SE,140,23.0,-999.0,-999,-99.99,,,-99.99,,2013-06-01 07:11:00,
2013-06-01 02:22:00,77.0,-99.9,29.95,SE,140,23.0,-999.0,-999,-99.99,,,-99.99,,2013-06-01 07:22:00,
2013-06-01 02:30:00,78.0,-99.9,29.96,SE,140,21.0,-999.0,-999,-99.99,,,-99.99,,2013-06-01 07:30:00,
2013-06-01 02:52:00,78.0,-99.9,29.96,SE,140,22.0,-999.0,-999,-99.99,,,-99.99,,2013-06-01 07:52:00,
2013-06-01 03:00:00,78.0,-99.9,29.96,SE,140,21.0,-999.0,-999,-99.99,,,-99.99,,2013-06-01 08:00:00,
2013-06-01 03:11:00,78.0,-99.9,29.96,SE,140,21.0,-999.0,-999,-99.99,,,-99.99,,2013-06-01 08:11:00,
2013-06-01 03:22:00,78.0,-99.9,29.96,SE,140,21.0,-999.0,-999,-99.99,,,-99.99,,2013-06-01 08:22:00,
2013-06-01 03:30:00,78.0,-99.9,29.96,SE,140,18.0,-999.0,-999,-99.99,,,-99.99,,2013-06-01 08:30:00,
2013-06-01 03:52:00,78.0,-99.9,29.96,SE,140,21.0,-999.0,-999,-99.99,,,-99.99,,2013-06-01 08:52:00,
2013-06-01 04:00:00,78.0,-99.9,29.95,SE,140,15.0,-999.0,-999,-99.99,,,-99.99,,2013-06-01 09:00:00,
2013-06-01 04:12:00,78.0,-99.9,29.96,SE,140,18.0,-999.0,-999,-99.99,,,-99.99,,2013-06-01 09:12:00,
2013-06-01 04:22:00,78.0,-99.9,29.96,SE,140,18.0,-999.0,-999,-99.99,,,-99.99,,2013-06-01 09:22:00,
2013-06-01 04:30:00,78.0,-99.9,29.95,SE,130,18.0,-999.0,-999,-99.99,,,-99.99,,2013-06-01 09:30:00,
2013-06-01 04:53:00,78.0,-99.9,29.95,SE,140,15.0,-999.0,-999,-99.99,,,-99.99,,2013-06-01 09:53:00,
2013-06-01 05:00:00,78.0,-99.9,29.95,SE,130,17.0,-999.0,-999,-99.99,,,-99.99,,2013-06-01 10:00:00,
2013-06-01 05:22:00,78.0,-99.9,29.95,SE,130,18.0,-999.0,-999,-99.99,,,-99.99,,2013-06-01 10:22:00,
2013-06-01 05:30:00,78.0,-99.9,29.95,SE,130,17.0,-999.0,-999,-99.99,,,-99.99,,2013-06-01 10:30:00,
2013-06-01 05:53:00,78.0,-99.9,29.95,SE,130,17.0,-999.0,-999,-99.99,,,-99.99,,2013-06-01 10:53:00,
2013-06-01 06:00:00,78.0,-99.9,29.95,SE,130,20.0,-999.0,-999,-99.99,,,-99.99,,2013-06-01 11:00:00,
2013-06-01 06:11:00,78.0,-99.9,29.95,SE,130,17.0,-999.0,-999,-99.99,,,-99.99,,2013-06-01 11:11:00,
2013-06-01 06:22:00,78.0,-99.9,29.95,SE,130,17.0,-999.0,-999,-99.99,,,-99.99,,2013-06-01 11:22:00,
2013-06-01 06:30:00,78.0,-99.9,29.94,SE,130,20.0,-999.0,-999,-99.99,,,-99.99,,2013-06-01 11:30:00,
2013-06-01 06:42:00,78.0,-99.9,29.95,SE,130,20.0,-999.0,-999,-99.99,,,-99.99,,2013-06-01 11:42:00,
2013-06-01 06:52:00,78.0,-99.9,29.95,SE,130,20.0,-999.0,-999,-99.99,,,-99.99,,2013-06-01 11:52:00,
2013-06-01 07:00:00,78.0,-99.9,29.95,SE,130,21.0,-999.0,-999,-99.99,,,-99.99,,2013-06-01 12:00:00,
2013-06-01 07:12:00,78.0,-99.9,29.94,SE,130,20.0,-999.0,-999,-99.99,,,-99.99,,2013-06-01 12:12:00,
2013-06-01 07:22:00,78.0,-99.9,29.94,SE,130,20.0,-999.0,-999,-99.99,,,-99.99,,2013-06-01 12:22:00,
2013-06-01 07:30:00,78.0,-99.9,29.95,SE,130,21.0,-999.0,-999,-99.99,,,-99.99,,2013-06-01 12:30:00,
2013-06-01 07:52:00,78.0,-99.9,29.95,SE,130,21.0,-999.0,-999,-99.99,,,-99.99,,2013-06-01 12:52:00,
2013-06-01 08:00:00,78.0,-99.9,29.96,SE,130,21.0,-999.0,-999,-99.99,,,-99.99,,2013-06-01 13:00:00,
2013-06-01 08:22:00,78.0,-99.9,29.95,SE,130,21.0,-999.0,-999,-99.99,,,-99.99,,2013-06-01 13:22:00,
2013-06-01 08:30:00,78.0,-99.9,29.96,SE,130,22.0,-999.0,-999,-99.99,,,-99.99,,2013-06-01 13:30:00,
2013-06-01 08:52:00,78.0,-99.9,29.96,SE,130,21.0,-999.0,-999,-99.99,,,-99.99,,2013-06-01 13:52:00,
2013-06-01 09:00:00,78.0,-99.9,29.96,SE,130,21.0,-999.0,-999,-99.99,,,-99.99,,2013-06-01 14:00:00,
2013-06-01 09:22:00,78.0,-99.9,29.96,SE,130,22.0,-999.0,-999,-99.99,,,-99.99,,2013-06-01 14:22:00,
2013-06-01 09:30:00,78.0,-99.9,29.97,SE,130,21.0,-999.0,-999,-99.99,,,-99.99,,2013-06-01 14:30:00,
2013-06-01 09:52:00,78.0,-99.9,29.96,SE,130,21.0,-999.0,-999,-99.99,,,-99.99,,2013-06-01 14:52:00,
2013-06-01 10:00:00,78.0,-99.9,29.97,SE,130,20.0,-999.0,-999,-99.99,,,-99.99,,2013-06-01 15:00:00,
2013-06-01 10:22:00,78.0,-99.9,29.97,SE,130,21.0,-999.0,-999,-99.99,,,-99.99,,2013-06-01 15:22:00,
2013-06-01 10:30:00,78.0,-99.9,29.97,SE,130,21.0,-999.0,-999,-99.99,,,-99.99,,2013-06-01 15:30:00,
2013-06-01 10:54:00,78.0,-99.9,29.97,SE,130,20.0,-999.0,-999,-99.99,,,-99.99,,2013-06-01 15:54:00,
2013-06-01 11:00:00,79.0,-99.9,29.98,SE,140,21.0,-999.0,-999,-99.99,,,-99.99,,2013-06-01 16:00:00,
2013-06-01 11:13:00,78.0,-99.9,29.97,SE,130,21.0,-999.0,-999,-99.99,,,-99.99,,2013-06-01 16:13:00,
2013-06-01 11:23:00,78.0,-99.9,29.97,SE,130,21.0,-999.0,-999,-99.99,,,-99.99,,2013-06-01 16:23:00,
2013-06-01 11:30:00,79.0,-99.9,29.98,SE,140,22.0,-999.0,-999,-99.99,,,-99.99,,2013-06-01 16:30:00,
2013-06-01 11:53:00,79.0,-99.9,29.98,SE,140,21.0,-999.0,-999,-99.99,,,-99.99,,2013-06-01 16:53:00,
2013-06-01 12:00:00,79.0,-99.9,29.98,SE,140,22.0,-999.0,-999,-99.99,,,-99.99,,2013-06-01 17:00:00,
2013-06-01 12:22:00,79.0,-99.9,29.98,SE,140,22.0,-999.0,-999,-99.99,,,-99.99,,2013-06-01 17:22:00,
2013-06-01 12:30:00,79.0,-99.9,29.99,SE,140,22.0,-999.0,-999,-99.99,,,-99.99,,2013-06-01 17:30:00,
2013-06-01 12:43:00,79.0,-99.9,29.98,SE,140,22.0,-999.0,-999,-99.99,,,-99.99,,2013-06-01 17:43:00,
2013-06-01 12:52:00,79.0,-99.9,29.98,SE,140,22.0,-999.0,-999,-99.99,,,-99.99,,2013-06-01 17:52:00,
2013-06-01 13:00:00,79.0,-99.9,29.99,SE,140,20.0,-999.0,-999,-99.99,,,-99.99,,2013-06-01 18:00:00,
2013-06-01 13:12:00,79.0,-99.9,29.99,SE,140,22.0,-999.0,-999,-99.99,,,-99.99,,2013-06-01 18:12:00,
2013-06-01 13:22:00,79.0,-99.9,29.99,SE,140,22.0,-999.0,-999,-99.99,,,-99.99,,2013-06-01 18:22:00,
2013-06-01 13:30:00,79.0,-99.9,29.99,SE,140,20.0,-999.0,-999,-99.99,,,-99.99,,2013-06-01 18:30:00,
2013-06-01 13:52:00,79.0,-99.9,29.99,SE,140,20.0,-999.0,-999,-99.99,,,-99.99,,2013-06-01 18:52:00,
2013-06-01 14:00:00,79.0,-99.9,29.99,SE,140,20.0,-999.0,-999,-99.99,,,-99.99,,2013-06-01 19:00:00,
2013-06-01 14:22:00,79.0,-99.9,29.99,SE,140,20.0,-999.0,-999,-99.99,,,-99.99,,2013-06-01 19:22:00,
2013-06-01 14:30:00,79.0,-99.9,29.98,SE,140,21.0,-999.0,-999,-99.99,,,-99.99,,2013-06-01 19:30:00,
2013-06-01 14:53:00,79.0,-99.9,29.99,SE,140,20.0,-999.0,-999,-99.99,,,-99.99,,2013-06-01 19:53:00,
2013-06-01 15:00:00,79.0,-99.9,29.97,SSE,150,21.0,-999.0,-999,-99.99,,,-99.99,,2013-06-01 20:00:00,
2013-06-01 15:22:00,79.0,-99.9,29.98,SE,140,21.0,-999.0,-999,-99.99,,,-99.99,,2013-06-01 20:22:00,
2013-06-01 15:30:00,79.0,-99.9,29.97,SSE,160,21.0,-999.0,-999,-99.99,,,-99.99,,2013-06-01 20:30:00,
2013-06-01 15:52:00,79.0,-99.9,29.97,SSE,150,21.0,-999.0,-999,-99.99,,,-99.99,,2013-06-01 20:52:00,
2013-06-01 16:00:00,79.0,-99.9,29.95,SSE,150,18.0,-999.0,-999,-99.99,,,-99.99,,2013-06-01 21:00:00,
2013-06-01 16:22:00,79.0,-99.9,29.97,SSE,160,21.0,-999.0,-999,-99.99,,,-99.99,,2013-06-01 21:22:00,
2013-06-01 16:30:00,79.0,-99.9,29.94,SSE,150,17.0,-999.0,-999,-99.99,,,-99.99,,2013-06-01 21:30:00,
2013-06-01 16:54:00,79.0,-99.9,29.95,SSE,150,18.0,-999.0,-999,-99.99,,,-99.99,,2013-06-01 21:54:00,
2013-06-01 17:00:00,79.0,-99.9,29.94,SSE,150,16.0,-999.0,-999,-99.99,,,-99.99,,2013-06-01 22:00:00,
2013-06-01 17:12:00,79.0,-99.9,29.94,SSE,150,17.0,-999.0,-999,-99.99,,,-99.99,,2013-06-01 22:12:00,
2013-06-01 17:23:00,79.0,-99.9,29.94,SSE,150,17.0,-999.0,-999,-99.99,,,-99.99,,2013-06-01 22:23:00,
2013-06-01 17:30:00,79.0,-99.9,29.94,SSE,150,16.0,-999.0,-999,-99.99,,,-99.99,,2013-06-01 22:30:00,
2013-06-01 17:53:00,79.0,-99.9,29.94,SSE,150,16.0,-999.0,-999,-99.99,,,-99.99,,2013-06-01 22:53:00,
2013-06-01 18:00:00,79.0,-99.9,29.93,SSE,150,16.0,-999.0,-999,-99.99,,,-99.99,,2013-06-01 23:00:00,
2013-06-01 18:22:00,79.0,-99.9,29.94,SSE,150,16.0,-999.0,-999,-99.99,,,-99.99,,2013-06-01 23:22:00,
2013-06-01 18:30:00,79.0,-99.9,29.94,SSE,150,16.0,-999.0,-999,-99.99,,,-99.99,,2013-06-01 23:30:00,
2013-06-01 18:52:00,79.0,-99.9,29.93,SSE,150,16.0,-999.0,-999,-99.99,,,-99.99,,2013-06-01 23:52:00,
2013-06-01 19:00:00,79.0,-99.9,29.93,SSE,150,14.0,-999.0,-999,-99.99,,,-99.99,,2013-06-02 00:00:00,
2013-06-01 19:11:00,79.0,-99.9,29.94,SSE,150,16.0,-999.0,-999,-99.99,,,-99.99,,2013-06-02 00:11:00,
2013-06-01 19:22:00,79.0,-99.9,29.94,SSE,150,16.0,-999.0,-999,-99.99,,,-99.99,,2013-06-02 00:22:00,
2013-06-01 19:30:00,79.0,-99.9,29.92,SE,140,14.0,-999.0,-999,-99.99,,,-99.99,,2013-06-02 00:30:00,
2013-06-01 19:42:00,79.0,-99.9,29.93,SSE,150,14.0,-999.0,-999,-99.99,,,-99.99,,2013-06-02 00:42:00,
2013-06-01 19:52:00,79.0,-99.9,29.93,SSE,150,14.0,-999.0,-999,-99.99,,,-99.99,,2013-06-02 00:52:00,
2013-06-01 20:00:00,79.0,-99.9,29.92,SE,140,15.0,-999.0,-999,-99.99,,,-99.99,,2013-06-02 01:00:00,
2013-06-01 20:22:00,79.0,-99.9,29.92,SE,140,14.0,-999.0,-999,-99.99,,,-99.99,,2013-06-02 01:22:00,
2013-06-01 20:30:00,78.0,-99.9,29.94,SE,140,14.0,-999.0,-999,-99.99,,,-99.99,,2013-06-02 01:30:00,
2013-06-01 20:52:00,79.0,-99.9,29.92,SE,140,15.0,-999.0,-999,-99.99,,,-99.99,,2013-06-02 01:52:00,
2013-06-01 21:00:00,78.0,-99.9,29.95,SSE,160,16.0,-999.0,-999,-99.99,,,-99.99,,2013-06-02 02:00:00,
2013-06-01 21:12:00,78.0,-99.9,29.94,SE,140,14.0,-999.0,-999,-99.99,,,-99.99,,2013-06-02 02:12:00,
2013-06-01 21:22:00,78.0,-99.9,29.94,SE,140,14.0,-999.0,-999,-99.99,,,-99.99,,2013-06-02 02:22:00,
2013-06-01 21:30:00,78.0,-99.9,29.95,SSE,150,14.0,-999.0,-999,-99.99,,,-99.99,,2013-06-02 02:30:00,
2013-06-01 21:52:00,78.0,-99.9,29.95,SSE,160,16.0,-999.0,-999,-99.99,,,-99.99,,2013-06-02 02:52:00,
2013-06-01 22:00:00,78.0,-99.9,29.95,SE,140,13.0,-999.0,-999,-99.99,,,-99.99,,2013-06-02 03:00:00,
2013-06-01 22:22:00,78.0,-99.9,29.95,SSE,150,14.0,-999.0,-999,-99.99,,,-99.99,,2013-06-02 03:22:00,
2013-06-01 22:30:00,78.0,-99.9,29.96,SE,130,13.0,-999.0,-999,-99.99,,,-99.99,,2013-06-02 03:30:00,
2013-06-01 22:53:00,78.0,-99.9,29.95,SE,140,13.0,-999.0,-999,-99.99,,,-99.99,,2013-06-02 03:53:00,
2013-06-01 23:00:00,78.0,-99.9,29.96,SE,130,17.0,-999.0,-999,-99.99,,,-99.99,,2013-06-02 04:00:00,
2013-06-01 23:13:00,78.0,-99.9,29.96,SE,130,13.0,-999.0,-999,-99.99,,,-99.99,,2013-06-02 04:13:00,
2013-06-01 23:23:00,78.0,-99.9,29.96,SE,130,13.0,-999.0,-999,-99.99,,,-99.99,,2013-06-02 04:23:00,
2013-06-01 23:30:00,78.0,-99.9,29.97,SSE,150,16.0,-999.0,-999,-99.99,,,-99.99,,2013-06-02 04:30:00,
2013-06-01 23:53:00,78.0,-99.9,29.96,SE,130,17.0,-999.0,-999,-99.99,,,-99.99,,2013-06-02 04:53:00,